owner,sensor,date,latitude,longitude,vertical_datum,mass_concentration_of_oxygen_in_sea_water,qcFlag 
DISL,ioos:station:DISL:CATA:1,2019-05-01T00:30:00Z,30.3085,-88.1395,2.456,9.66,11111222 
DISL,ioos:station:DISL:CATA:1,2019-05-01T01:30:00Z,30.3085,-88.1395,2.492,9.3,11111222 
DISL,ioos:station:DISL:CATA:1,2019-05-01T02:30:00Z,30.3085,-88.1395,2.497,9.1,11111222 
DISL,ioos:station:DISL:CATA:1,2019-05-01T03:30:00Z,30.3085,-88.1395,2.512,9.03,11111222 
DISL,ioos:station:DISL:CATA:1,2019-05-01T04:30:00Z,30.3085,-88.1395,2.534,8.83,11111222 
DISL,ioos:station:DISL:CATA:1,2019-05-01T06:00:00Z,30.3085,-88.1395,2.52,8.72,11111222 
DISL,ioos:station:DISL:CATA:1,2019-05-01T06:30:00Z,30.3085,-88.1395,2.508,8.69,11111222 
DISL,ioos:station:DISL:CATA:1,2019-05-01T07:30:00Z,30.3085,-88.1395,2.476,8.6,11111222 
DISL,ioos:station:DISL:CATA:1,2019-05-01T08:30:00Z,30.3085,-88.1395,2.437,8.57,11111222 
DISL,ioos:station:DISL:CATA:1,2019-05-01T09:30:00Z,30.3085,-88.1395,2.409,8.61,11111222 
DISL,ioos:station:DISL:CATA:1,2019-05-01T10:30:00Z,30.3085,-88.1395,2.411,8.53,11111222 
DISL,ioos:station:DISL:CATA:1,2019-05-01T11:30:00Z,30.3085,-88.1395,2.431,8.37,11111222 
DISL,ioos:station:DISL:CATA:1,2019-05-01T12:30:00Z,30.3085,-88.1395,2.449,8.34,11111222 
DISL,ioos:station:DISL:CATA:1,2019-05-01T13:30:00Z,30.3085,-88.1395,2.448,8.39,11111222 
DISL,ioos:station:DISL:CATA:1,2019-05-01T14:30:00Z,30.3085,-88.1395,2.471,8.18,11111222 
DISL,ioos:station:DISL:CATA:1,2019-05-01T15:30:00Z,30.3085,-88.1395,2.483,5.75,11111222 
DISL,ioos:station:DISL:CATA:1,2019-05-01T16:30:00Z,30.3085,-88.1395,2.487,7.72,11111222 
DISL,ioos:station:DISL:CATA:1,2019-05-01T17:30:00Z,30.3085,-88.1395,2.478,9.02,11111222 
DISL,ioos:station:DISL:CATA:1,2019-05-01T18:30:00Z,30.3085,-88.1395,2.457,9.19,11111222 
DISL,ioos:station:DISL:CATA:1,2019-05-01T19:30:00Z,30.3085,-88.1395,2.432,9.21,11111222 
DISL,ioos:station:DISL:CATA:1,2019-05-01T20:30:00Z,30.3085,-88.1395,2.404,9.32,11111222 
DISL,ioos:station:DISL:CATA:1,2019-05-01T21:30:00Z,30.3085,-88.1395,2.376,9.42,11111222 
DISL,ioos:station:DISL:CATA:1,2019-05-01T22:30:00Z,30.3085,-88.1395,2.399,9.46,11111222 
DISL,ioos:station:DISL:CATA:1,2019-05-01T23:30:00Z,30.3085,-88.1395,2.417,9.43,11111222 
DISL,ioos:station:DISL:CATA:1,2019-05-02T00:30:00Z,30.3085,-88.1395,2.442,9.21,11111222 
DISL,ioos:station:DISL:CATA:1,2019-05-02T01:30:00Z,30.3085,-88.1395,2.458,9.04,11111222 
DISL,ioos:station:DISL:CATA:1,2019-05-02T02:30:00Z,30.3085,-88.1395,2.482,8.7,11111222 
DISL,ioos:station:DISL:CATA:1,2019-05-02T03:30:00Z,30.3085,-88.1395,2.495,8.63,11111222 
DISL,ioos:station:DISL:CATA:1,2019-05-02T04:30:00Z,30.3085,-88.1395,2.509,8.63,11111222 
DISL,ioos:station:DISL:CATA:1,2019-05-02T05:30:00Z,30.3085,-88.1395,2.537,8.54,11111222 
DISL,ioos:station:DISL:CATA:1,2019-05-02T06:30:00Z,30.3085,-88.1395,2.528,8.06,11111222 
DISL,ioos:station:DISL:CATA:1,2019-05-02T07:30:00Z,30.3085,-88.1395,2.491,8.55,11111222 
DISL,ioos:station:DISL:CATA:1,2019-05-02T08:30:00Z,30.3085,-88.1395,2.466,8.29,11111222 
DISL,ioos:station:DISL:CATA:1,2019-05-02T09:30:00Z,30.3085,-88.1395,2.451,8.17,11111222 
DISL,ioos:station:DISL:CATA:1,2019-05-02T10:30:00Z,30.3085,-88.1395,2.443,8.4,11111222 
DISL,ioos:station:DISL:CATA:1,2019-05-02T11:30:00Z,30.3085,-88.1395,2.457,8.39,11111222 
DISL,ioos:station:DISL:CATA:1,2019-05-02T12:30:00Z,30.3085,-88.1395,2.48,8.18,11111222 
DISL,ioos:station:DISL:CATA:1,2019-05-02T13:30:00Z,30.3085,-88.1395,2.51,8.16,11111222 
DISL,ioos:station:DISL:CATA:1,2019-05-02T14:30:00Z,30.3085,-88.1395,2.522,8.34,11111222 
DISL,ioos:station:DISL:CATA:1,2019-05-02T15:30:00Z,30.3085,-88.1395,2.523,8.49,11111222 
DISL,ioos:station:DISL:CATA:1,2019-05-02T16:30:00Z,30.3085,-88.1395,2.527,8.55,11111222 
DISL,ioos:station:DISL:CATA:1,2019-05-02T17:30:00Z,30.3085,-88.1395,2.523,8.66,11111222 
DISL,ioos:station:DISL:CATA:1,2019-05-02T18:30:00Z,30.3085,-88.1395,2.498,8.8,11111222 
DISL,ioos:station:DISL:CATA:1,2019-05-02T19:30:00Z,30.3085,-88.1395,2.44,8.93,11111222 
DISL,ioos:station:DISL:CATA:1,2019-05-02T20:30:00Z,30.3085,-88.1395,2.382,9.19,11111222 
DISL,ioos:station:DISL:CATA:1,2019-05-02T21:30:00Z,30.3085,-88.1395,2.317,9.4,11111222 
DISL,ioos:station:DISL:CATA:1,2019-05-02T22:30:00Z,30.3085,-88.1395,2.285,9.51,11111222 
DISL,ioos:station:DISL:CATA:1,2019-05-02T23:30:00Z,30.3085,-88.1395,2.343,9.39,11111222 
DISL,ioos:station:DISL:CATA:1,2019-05-03T00:30:00Z,30.3085,-88.1395,2.397,9.02,11111222 
DISL,ioos:station:DISL:CATA:1,2019-05-03T01:30:00Z,30.3085,-88.1395,2.427,8.18,11111222 
DISL,ioos:station:DISL:CATA:1,2019-05-03T02:30:00Z,30.3085,-88.1395,2.439,8.43,11111222 
DISL,ioos:station:DISL:CATA:1,2019-05-03T03:30:00Z,30.3085,-88.1395,2.461,8.56,11111222 
DISL,ioos:station:DISL:CATA:1,2019-05-03T04:30:00Z,30.3085,-88.1395,2.468,8.03,11111222 
DISL,ioos:station:DISL:CATA:1,2019-05-03T05:30:00Z,30.3085,-88.1395,2.49,8.06,11111222 
DISL,ioos:station:DISL:CATA:1,2019-05-03T06:30:00Z,30.3085,-88.1395,2.497,7.69,11111222 
DISL,ioos:station:DISL:CATA:1,2019-05-03T07:30:00Z,30.3085,-88.1395,2.486,6.59,11111222 
DISL,ioos:station:DISL:CATA:1,2019-05-03T08:30:00Z,30.3085,-88.1395,2.464,8.47,11111222 
DISL,ioos:station:DISL:CATA:1,2019-05-03T09:30:00Z,30.3085,-88.1395,2.469,8.42,11111222 
DISL,ioos:station:DISL:CATA:1,2019-05-03T10:30:00Z,30.3085,-88.1395,2.488,7.62,11111222 
DISL,ioos:station:DISL:CATA:1,2019-05-03T11:30:00Z,30.3085,-88.1395,2.51,2.37,11111222 
DISL,ioos:station:DISL:CATA:1,2019-05-03T12:30:00Z,30.3085,-88.1395,2.52,0.46,11111222 
DISL,ioos:station:DISL:CATA:1,2019-05-03T13:30:00Z,30.3085,-88.1395,2.534,0.37,11111222 
DISL,ioos:station:DISL:CATA:1,2019-05-03T14:30:00Z,30.3085,-88.1395,2.557,3.58,11111222 
DISL,ioos:station:DISL:CATA:1,2019-05-03T15:30:00Z,30.3085,-88.1395,2.548,1.73,11111222 
DISL,ioos:station:DISL:CATA:1,2019-05-03T16:30:00Z,30.3085,-88.1395,2.534,0.91,11111222 
DISL,ioos:station:DISL:CATA:1,2019-05-03T17:30:00Z,30.3085,-88.1395,2.531,0.52,11111222 
DISL,ioos:station:DISL:CATA:1,2019-05-03T18:30:00Z,30.3085,-88.1395,2.511,1.41,11111222 
DISL,ioos:station:DISL:CATA:1,2019-05-03T19:30:00Z,30.3085,-88.1395,2.466,0.93,11111222 
DISL,ioos:station:DISL:CATA:1,2019-05-03T20:30:00Z,30.3085,-88.1395,2.403,0.84,11111222 
DISL,ioos:station:DISL:CATA:1,2019-05-03T21:30:00Z,30.3085,-88.1395,2.362,7.51,11111222 
DISL,ioos:station:DISL:CATA:1,2019-05-03T22:30:00Z,30.3085,-88.1395,2.325,9.79,11111222 
DISL,ioos:station:DISL:CATA:1,2019-05-03T23:30:00Z,30.3085,-88.1395,2.326,9.88,11111222 
DISL,ioos:station:DISL:CATA:1,2019-05-04T00:30:00Z,30.3085,-88.1395,2.335,9.62,11111222 
DISL,ioos:station:DISL:CATA:1,2019-05-04T01:30:00Z,30.3085,-88.1395,2.347,9.19,11111222 
DISL,ioos:station:DISL:CATA:1,2019-05-04T02:30:00Z,30.3085,-88.1395,2.366,5.15,11111222 
DISL,ioos:station:DISL:CATA:1,2019-05-04T03:30:00Z,30.3085,-88.1395,2.392,8.64,11111222 
DISL,ioos:station:DISL:CATA:1,2019-05-04T04:30:00Z,30.3085,-88.1395,2.415,8.3,11111222 
DISL,ioos:station:DISL:CATA:1,2019-05-04T05:30:00Z,30.3085,-88.1395,2.447,8.22,11111222 
DISL,ioos:station:DISL:CATA:1,2019-05-04T06:30:00Z,30.3085,-88.1395,2.478,8.25,11111222 
DISL,ioos:station:DISL:CATA:1,2019-05-04T07:30:00Z,30.3085,-88.1395,2.503,8.33,11111222 
DISL,ioos:station:DISL:CATA:1,2019-05-04T08:30:00Z,30.3085,-88.1395,2.513,7.49,11111222 
DISL,ioos:station:DISL:CATA:1,2019-05-04T09:30:00Z,30.3085,-88.1395,2.515,7.41,11111222 
DISL,ioos:station:DISL:CATA:1,2019-05-04T10:30:00Z,30.3085,-88.1395,2.503,5.75,11111222 
DISL,ioos:station:DISL:CATA:1,2019-05-04T11:30:00Z,30.3085,-88.1395,2.523,7.26,11111222 
DISL,ioos:station:DISL:CATA:1,2019-05-04T12:30:00Z,30.3085,-88.1395,2.565,6.08,11111222 
DISL,ioos:station:DISL:CATA:1,2019-05-04T13:30:00Z,30.3085,-88.1395,2.622,6.54,11111222 
DISL,ioos:station:DISL:CATA:1,2019-05-04T14:30:00Z,30.3085,-88.1395,2.629,7.79,11111222 
DISL,ioos:station:DISL:CATA:1,2019-05-04T15:30:00Z,30.3085,-88.1395,2.635,7.77,11111222 
DISL,ioos:station:DISL:CATA:1,2019-05-04T16:30:00Z,30.3085,-88.1395,2.621,7.41,11111222 
DISL,ioos:station:DISL:CATA:1,2019-05-04T17:30:00Z,30.3085,-88.1395,2.597,5.08,11111222 
DISL,ioos:station:DISL:CATA:1,2019-05-04T18:30:00Z,30.3085,-88.1395,2.558,6.89,11111222 
DISL,ioos:station:DISL:CATA:1,2019-05-04T19:30:00Z,30.3085,-88.1395,2.533,7.85,11111222 
DISL,ioos:station:DISL:CATA:1,2019-05-04T20:30:00Z,30.3085,-88.1395,2.566,7.84,11111222 
DISL,ioos:station:DISL:CATA:1,2019-05-04T21:30:00Z,30.3085,-88.1395,2.466,7.66,11111222 
DISL,ioos:station:DISL:CATA:1,2019-05-04T22:30:00Z,30.3085,-88.1395,2.408,7.61,11111222 
DISL,ioos:station:DISL:CATA:1,2019-05-04T23:30:00Z,30.3085,-88.1395,2.336,7.22,11111222 
DISL,ioos:station:DISL:CATA:1,2019-05-05T00:30:00Z,30.3085,-88.1395,2.346,6.54,11111222 
DISL,ioos:station:DISL:CATA:1,2019-05-05T01:30:00Z,30.3085,-88.1395,2.36,4.94,11111222 
DISL,ioos:station:DISL:CATA:1,2019-05-05T02:30:00Z,30.3085,-88.1395,2.37,6.63,11111222 
DISL,ioos:station:DISL:CATA:1,2019-05-05T03:30:00Z,30.3085,-88.1395,2.369,7.73,11111222 
DISL,ioos:station:DISL:CATA:1,2019-05-05T04:30:00Z,30.3085,-88.1395,2.405,7.48,11111222 
DISL,ioos:station:DISL:CATA:1,2019-05-05T05:30:00Z,30.3085,-88.1395,2.435,7.71,11111222 
DISL,ioos:station:DISL:CATA:1,2019-05-05T06:30:00Z,30.3085,-88.1395,2.462,7.22,11111222 
DISL,ioos:station:DISL:CATA:1,2019-05-05T07:30:00Z,30.3085,-88.1395,2.453,7.06,11111222 
DISL,ioos:station:DISL:CATA:1,2019-05-05T08:30:00Z,30.3085,-88.1395,2.464,4.75,11111222 
DISL,ioos:station:DISL:CATA:1,2019-05-05T09:30:00Z,30.3085,-88.1395,2.521,4.7,11111222 
DISL,ioos:station:DISL:CATA:1,2019-05-05T10:30:00Z,30.3085,-88.1395,2.523,5.12,11111222 
DISL,ioos:station:DISL:CATA:1,2019-05-05T11:30:00Z,30.3085,-88.1395,2.498,4.19,11111222 
DISL,ioos:station:DISL:CATA:1,2019-05-05T12:30:00Z,30.3085,-88.1395,2.545,3.4,11111222 
DISL,ioos:station:DISL:CATA:1,2019-05-05T13:30:00Z,30.3085,-88.1395,2.564,4.33,11111222 
DISL,ioos:station:DISL:CATA:1,2019-05-05T14:30:00Z,30.3085,-88.1395,2.598,5.77,11111222 
DISL,ioos:station:DISL:CATA:1,2019-05-05T15:30:00Z,30.3085,-88.1395,2.626,6.35,11111222 
DISL,ioos:station:DISL:CATA:1,2019-05-05T16:30:00Z,30.3085,-88.1395,2.622,6.47,11111222 
DISL,ioos:station:DISL:CATA:1,2019-05-05T17:30:00Z,30.3085,-88.1395,2.587,6.14,11111222 
DISL,ioos:station:DISL:CATA:1,2019-05-05T18:30:00Z,30.3085,-88.1395,2.551,2.78,11111222 
DISL,ioos:station:DISL:CATA:1,2019-05-05T19:30:00Z,30.3085,-88.1395,2.528,5.34,11111222 
DISL,ioos:station:DISL:CATA:1,2019-05-05T20:30:00Z,30.3085,-88.1395,2.473,8.11,11111222 
DISL,ioos:station:DISL:CATA:1,2019-05-05T21:30:00Z,30.3085,-88.1395,2.4,9.64,11111222 
DISL,ioos:station:DISL:CATA:1,2019-05-05T22:30:00Z,30.3085,-88.1395,2.316,10.19,11133222 
DISL,ioos:station:DISL:CATA:1,2019-05-05T23:30:00Z,30.3085,-88.1395,2.237,10.5,11133222 
DISL,ioos:station:DISL:CATA:1,2019-05-06T00:30:00Z,30.3085,-88.1395,2.198,10.2,11133222 
DISL,ioos:station:DISL:CATA:1,2019-05-06T01:30:00Z,30.3085,-88.1395,2.17,9.74,11111222 
DISL,ioos:station:DISL:CATA:1,2019-05-06T02:30:00Z,30.3085,-88.1395,2.177,9.41,11111222 
DISL,ioos:station:DISL:CATA:1,2019-05-06T03:30:00Z,30.3085,-88.1395,2.181,9.16,11111222 
DISL,ioos:station:DISL:CATA:1,2019-05-06T04:30:00Z,30.3085,-88.1395,2.204,8.8,11111222 
DISL,ioos:station:DISL:CATA:1,2019-05-06T05:30:00Z,30.3085,-88.1395,2.243,8.66,11111222 
DISL,ioos:station:DISL:CATA:1,2019-05-06T06:30:00Z,30.3085,-88.1395,2.295,7.76,11111222 
DISL,ioos:station:DISL:CATA:1,2019-05-06T07:30:00Z,30.3085,-88.1395,2.355,8.2,11111222 
DISL,ioos:station:DISL:CATA:1,2019-05-06T08:30:00Z,30.3085,-88.1395,2.389,8.36,11111222 
DISL,ioos:station:DISL:CATA:1,2019-05-06T09:30:00Z,30.3085,-88.1395,2.416,7.96,11111222 
DISL,ioos:station:DISL:CATA:1,2019-05-06T10:30:00Z,30.3085,-88.1395,2.419,4.37,11111222 
DISL,ioos:station:DISL:CATA:1,2019-05-06T11:30:00Z,30.3085,-88.1395,2.451,7.77,11111222 
DISL,ioos:station:DISL:CATA:1,2019-05-06T12:30:00Z,30.3085,-88.1395,2.503,8.0,11111222 
DISL,ioos:station:DISL:CATA:1,2019-05-06T13:30:00Z,30.3085,-88.1395,2.597,6.81,11111222 
DISL,ioos:station:DISL:CATA:1,2019-05-06T14:30:00Z,30.3085,-88.1395,2.626,7.8,11111222 
DISL,ioos:station:DISL:CATA:1,2019-05-06T15:30:00Z,30.3085,-88.1395,2.62,5.82,11111222 
DISL,ioos:station:DISL:CATA:1,2019-05-06T16:30:00Z,30.3085,-88.1395,2.634,5.88,11111222 
DISL,ioos:station:DISL:CATA:1,2019-05-06T17:30:00Z,30.3085,-88.1395,2.652,4.67,11111222 
DISL,ioos:station:DISL:CATA:1,2019-05-06T18:30:00Z,30.3085,-88.1395,2.641,3.94,11111222 
DISL,ioos:station:DISL:CATA:1,2019-05-06T19:30:00Z,30.3085,-88.1395,2.593,2.78,11111222 
DISL,ioos:station:DISL:CATA:1,2019-05-06T20:30:00Z,30.3085,-88.1395,2.533,1.44,11111222 
DISL,ioos:station:DISL:CATA:1,2019-05-06T21:30:00Z,30.3085,-88.1395,2.422,5.53,11111222 
DISL,ioos:station:DISL:CATA:1,2019-05-06T22:30:00Z,30.3085,-88.1395,2.346,8.55,11111222 
DISL,ioos:station:DISL:CATA:1,2019-05-06T23:30:00Z,30.3085,-88.1395,2.265,9.62,11111222 
DISL,ioos:station:DISL:CATA:1,2019-05-07T00:30:00Z,30.3085,-88.1395,2.202,9.47,11111222 
DISL,ioos:station:DISL:CATA:1,2019-05-07T01:30:00Z,30.3085,-88.1395,2.153,9.38,11111222 
DISL,ioos:station:DISL:CATA:1,2019-05-07T02:30:00Z,30.3085,-88.1395,2.126,9.17,11111222 
DISL,ioos:station:DISL:CATA:1,2019-05-07T03:30:00Z,30.3085,-88.1395,2.114,9.13,11111222 
DISL,ioos:station:DISL:CATA:1,2019-05-07T04:30:00Z,30.3085,-88.1395,2.129,9.13,11111222 
DISL,ioos:station:DISL:CATA:1,2019-05-07T05:30:00Z,30.3085,-88.1395,2.157,9.07,11111222 
DISL,ioos:station:DISL:CATA:1,2019-05-07T06:30:00Z,30.3085,-88.1395,2.205,8.43,11111222 
DISL,ioos:station:DISL:CATA:1,2019-05-07T07:30:00Z,30.3085,-88.1395,2.251,8.08,11111222 
DISL,ioos:station:DISL:CATA:1,2019-05-07T08:30:00Z,30.3085,-88.1395,2.294,8.58,11111222 
DISL,ioos:station:DISL:CATA:1,2019-05-07T09:30:00Z,30.3085,-88.1395,2.351,8.35,11111222 
DISL,ioos:station:DISL:CATA:1,2019-05-07T10:30:00Z,30.3085,-88.1395,2.408,8.39,11111222 
DISL,ioos:station:DISL:CATA:1,2019-05-07T11:30:00Z,30.3085,-88.1395,2.459,8.09,11111222 
DISL,ioos:station:DISL:CATA:1,2019-05-07T12:30:00Z,30.3085,-88.1395,2.512,7.33,11111222 
DISL,ioos:station:DISL:CATA:1,2019-05-07T13:30:00Z,30.3085,-88.1395,2.562,6.76,11111222 
DISL,ioos:station:DISL:CATA:1,2019-05-07T14:30:00Z,30.3085,-88.1395,2.603,7.09,11111222 
DISL,ioos:station:DISL:CATA:1,2019-05-07T15:30:00Z,30.3085,-88.1395,2.647,7.33,11111222 
DISL,ioos:station:DISL:CATA:1,2019-05-07T16:30:00Z,30.3085,-88.1395,2.668,7.71,11111222 
DISL,ioos:station:DISL:CATA:1,2019-05-07T17:30:00Z,30.3085,-88.1395,2.669,6.85,11111222 
DISL,ioos:station:DISL:CATA:1,2019-05-07T18:30:00Z,30.3085,-88.1395,2.648,5.57,11111222 
DISL,ioos:station:DISL:CATA:1,2019-05-07T19:30:00Z,30.3085,-88.1395,2.602,1.89,11111222 
DISL,ioos:station:DISL:CATA:1,2019-05-07T20:30:00Z,30.3085,-88.1395,2.556,5.83,11111222 
DISL,ioos:station:DISL:CATA:1,2019-05-07T21:30:00Z,30.3085,-88.1395,2.481,9.12,11111222 
DISL,ioos:station:DISL:CATA:1,2019-05-07T22:30:00Z,30.3085,-88.1395,2.389,9.36,11111222 
DISL,ioos:station:DISL:CATA:1,2019-05-07T23:30:00Z,30.3085,-88.1395,2.291,9.47,11111222 
DISL,ioos:station:DISL:CATA:1,2019-05-08T00:30:00Z,30.3085,-88.1395,2.217,9.88,11111222 
DISL,ioos:station:DISL:CATA:1,2019-05-08T01:30:00Z,30.3085,-88.1395,2.16,9.74,11111222 
DISL,ioos:station:DISL:CATA:1,2019-05-08T02:30:00Z,30.3085,-88.1395,2.138,9.71,11111222 
DISL,ioos:station:DISL:CATA:1,2019-05-08T03:30:00Z,30.3085,-88.1395,2.143,9.6,11111222 
DISL,ioos:station:DISL:CATA:1,2019-05-08T04:30:00Z,30.3085,-88.1395,2.154,9.11,11111222 
DISL,ioos:station:DISL:CATA:1,2019-05-08T05:30:00Z,30.3085,-88.1395,2.175,8.54,11111222 
DISL,ioos:station:DISL:CATA:1,2019-05-08T06:30:00Z,30.3085,-88.1395,2.21,7.02,11111222 
DISL,ioos:station:DISL:CATA:1,2019-05-08T07:30:00Z,30.3085,-88.1395,2.263,8.23,11111222 
DISL,ioos:station:DISL:CATA:1,2019-05-08T08:30:00Z,30.3085,-88.1395,2.313,8.66,11111222 
DISL,ioos:station:DISL:CATA:1,2019-05-08T09:30:00Z,30.3085,-88.1395,2.369,8.12,11111222 
DISL,ioos:station:DISL:CATA:1,2019-05-08T10:30:00Z,30.3085,-88.1395,2.426,7.78,11111222 
DISL,ioos:station:DISL:CATA:1,2019-05-08T11:30:00Z,30.3085,-88.1395,2.48,7.85,11111222 
DISL,ioos:station:DISL:CATA:1,2019-05-08T12:30:00Z,30.3085,-88.1395,2.554,7.87,11111222 
DISL,ioos:station:DISL:CATA:1,2019-05-08T13:30:00Z,30.3085,-88.1395,2.625,7.43,11111222 
DISL,ioos:station:DISL:CATA:1,2019-05-08T14:30:00Z,30.3085,-88.1395,2.689,6.9,11111222 
DISL,ioos:station:DISL:CATA:1,2019-05-08T15:30:00Z,30.3085,-88.1395,2.761,6.72,11111222 
DISL,ioos:station:DISL:CATA:1,2019-05-08T16:30:00Z,30.3085,-88.1395,2.798,7.42,11111222 
DISL,ioos:station:DISL:CATA:1,2019-05-08T17:30:00Z,30.3085,-88.1395,2.825,7.57,11111222 
DISL,ioos:station:DISL:CATA:1,2019-05-08T18:30:00Z,30.3085,-88.1395,2.818,6.48,11111222 
DISL,ioos:station:DISL:CATA:1,2019-05-08T19:30:00Z,30.3085,-88.1395,2.788,6.08,11111222 
DISL,ioos:station:DISL:CATA:1,2019-05-08T20:30:00Z,30.3085,-88.1395,2.723,8.33,11111222 
DISL,ioos:station:DISL:CATA:1,2019-05-08T21:30:00Z,30.3085,-88.1395,2.65,8.61,11111222 
DISL,ioos:station:DISL:CATA:1,2019-05-08T22:30:00Z,30.3085,-88.1395,2.565,8.38,11111222 
DISL,ioos:station:DISL:CATA:1,2019-05-08T23:30:00Z,30.3085,-88.1395,2.492,9.03,11111222 
DISL,ioos:station:DISL:CATA:1,2019-05-09T00:30:00Z,30.3085,-88.1395,2.404,8.61,11111222 
DISL,ioos:station:DISL:CATA:1,2019-05-09T01:30:00Z,30.3085,-88.1395,2.351,8.56,11111222 
DISL,ioos:station:DISL:CATA:1,2019-05-09T02:30:00Z,30.3085,-88.1395,2.292,8.24,11111222 
DISL,ioos:station:DISL:CATA:1,2019-05-09T03:30:00Z,30.3085,-88.1395,2.27,8.13,11111222 
DISL,ioos:station:DISL:CATA:1,2019-05-09T04:30:00Z,30.3085,-88.1395,2.264,7.83,11111222 
DISL,ioos:station:DISL:CATA:1,2019-05-09T05:30:00Z,30.3085,-88.1395,2.299,7.58,11111222 
DISL,ioos:station:DISL:CATA:1,2019-05-09T06:30:00Z,30.3085,-88.1395,2.304,7.46,11111222 
DISL,ioos:station:DISL:CATA:1,2019-05-09T07:30:00Z,30.3085,-88.1395,2.332,7.43,11111222 
DISL,ioos:station:DISL:CATA:1,2019-05-09T08:30:00Z,30.3085,-88.1395,2.386,6.86,11111222 
DISL,ioos:station:DISL:CATA:1,2019-05-09T09:30:00Z,30.3085,-88.1395,2.433,4.68,11111222 
DISL,ioos:station:DISL:CATA:1,2019-05-09T10:30:00Z,30.3085,-88.1395,2.495,5.85,11111222 
DISL,ioos:station:DISL:CATA:1,2019-05-09T11:30:00Z,30.3085,-88.1395,2.53,5.36,11111222 
DISL,ioos:station:DISL:CATA:1,2019-05-09T12:30:00Z,30.3085,-88.1395,2.597,5.31,11111222 
DISL,ioos:station:DISL:CATA:1,2019-05-09T13:30:00Z,30.3085,-88.1395,2.663,6.09,11111222 
DISL,ioos:station:DISL:CATA:1,2019-05-09T14:30:00Z,30.3085,-88.1395,2.722,6.79,11111222 
DISL,ioos:station:DISL:CATA:1,2019-05-09T15:30:00Z,30.3085,-88.1395,2.77,7.03,11111222 
DISL,ioos:station:DISL:CATA:1,2019-05-09T16:30:00Z,30.3085,-88.1395,2.833,7.23,11111222 
DISL,ioos:station:DISL:CATA:1,2019-05-09T17:30:00Z,30.3085,-88.1395,2.853,7.33,11111222 
DISL,ioos:station:DISL:CATA:1,2019-05-09T18:30:00Z,30.3085,-88.1395,2.883,6.94,11111222 
DISL,ioos:station:DISL:CATA:1,2019-05-09T19:30:00Z,30.3085,-88.1395,2.872,6.61,11111222 
DISL,ioos:station:DISL:CATA:1,2019-05-09T20:30:00Z,30.3085,-88.1395,2.844,5.99,11111222 
DISL,ioos:station:DISL:CATA:1,2019-05-09T21:30:00Z,30.3085,-88.1395,2.782,7.68,11111222 
DISL,ioos:station:DISL:CATA:1,2019-05-09T22:30:00Z,30.3085,-88.1395,2.693,7.17,11111222 
DISL,ioos:station:DISL:CATA:1,2019-05-09T23:30:00Z,30.3085,-88.1395,2.594,7.52,11111222 
DISL,ioos:station:DISL:CATA:1,2019-05-10T00:30:00Z,30.3085,-88.1395,2.542,7.48,11111222 
DISL,ioos:station:DISL:CATA:1,2019-05-10T01:30:00Z,30.3085,-88.1395,2.348,7.29,11111222 
DISL,ioos:station:DISL:CATA:1,2019-05-10T02:30:00Z,30.3085,-88.1395,2.257,7.2,11111222 
DISL,ioos:station:DISL:CATA:1,2019-05-10T03:30:00Z,30.3085,-88.1395,2.151,7.42,11111222 
DISL,ioos:station:DISL:CATA:1,2019-05-10T04:30:00Z,30.3085,-88.1395,2.069,7.4,11111222 
DISL,ioos:station:DISL:CATA:1,2019-05-10T06:00:00Z,30.3085,-88.1395,2.211,7.43,11111222 
DISL,ioos:station:DISL:CATA:1,2019-05-10T06:30:00Z,30.3085,-88.1395,2.268,7.4,11111222 
DISL,ioos:station:DISL:CATA:1,2019-05-10T07:30:00Z,30.3085,-88.1395,2.346,6.88,11111222 
DISL,ioos:station:DISL:CATA:1,2019-05-10T08:30:00Z,30.3085,-88.1395,2.46,6.84,11111222 
DISL,ioos:station:DISL:CATA:1,2019-05-10T09:30:00Z,30.3085,-88.1395,2.499,6.38,11111222 
DISL,ioos:station:DISL:CATA:1,2019-05-10T10:30:00Z,30.3085,-88.1395,2.65,6.6,11111222 
DISL,ioos:station:DISL:CATA:1,2019-05-10T11:30:00Z,30.3085,-88.1395,2.646,6.79,11111222 
DISL,ioos:station:DISL:CATA:1,2019-05-10T12:30:00Z,30.3085,-88.1395,2.696,6.95,11111222 
DISL,ioos:station:DISL:CATA:1,2019-05-10T13:30:00Z,30.3085,-88.1395,2.697,6.74,11111222 
DISL,ioos:station:DISL:CATA:1,2019-05-10T14:30:00Z,30.3085,-88.1395,2.699,4.36,11111222 
DISL,ioos:station:DISL:CATA:1,2019-05-10T15:30:00Z,30.3085,-88.1395,2.73,4.36,11111222 
DISL,ioos:station:DISL:CATA:1,2019-05-10T16:30:00Z,30.3085,-88.1395,2.725,3.71,11111222 
DISL,ioos:station:DISL:CATA:1,2019-05-10T17:30:00Z,30.3085,-88.1395,2.735,6.27,11111222 
DISL,ioos:station:DISL:CATA:1,2019-05-10T18:30:00Z,30.3085,-88.1395,2.766,7.02,11111222 
DISL,ioos:station:DISL:CATA:1,2019-05-10T19:30:00Z,30.3085,-88.1395,2.77,7.59,11111222 
DISL,ioos:station:DISL:CATA:1,2019-05-10T20:30:00Z,30.3085,-88.1395,2.75,7.86,11111222 
DISL,ioos:station:DISL:CATA:1,2019-05-10T21:30:00Z,30.3085,-88.1395,2.718,7.97,11111222 
DISL,ioos:station:DISL:CATA:1,2019-05-10T22:30:00Z,30.3085,-88.1395,2.769,6.88,11111222 
DISL,ioos:station:DISL:CATA:1,2019-05-10T23:30:00Z,30.3085,-88.1395,2.71,4.83,11111222 
DISL,ioos:station:DISL:CATA:1,2019-05-11T00:30:00Z,30.3085,-88.1395,2.625,7.68,11111222 
DISL,ioos:station:DISL:CATA:1,2019-05-11T01:30:00Z,30.3085,-88.1395,2.541,8.23,11111222 
DISL,ioos:station:DISL:CATA:1,2019-05-11T02:30:00Z,30.3085,-88.1395,2.432,8.18,11111222 
DISL,ioos:station:DISL:CATA:1,2019-05-11T03:30:00Z,30.3085,-88.1395,2.376,8.16,11111222 
DISL,ioos:station:DISL:CATA:1,2019-05-11T04:30:00Z,30.3085,-88.1395,2.315,8.1,11111222 
DISL,ioos:station:DISL:CATA:1,2019-05-11T05:30:00Z,30.3085,-88.1395,2.27,7.83,11111222 
DISL,ioos:station:DISL:CATA:1,2019-05-11T06:30:00Z,30.3085,-88.1395,2.234,7.81,11111222 
DISL,ioos:station:DISL:CATA:1,2019-05-11T07:30:00Z,30.3085,-88.1395,2.22,7.84,11111222 
DISL,ioos:station:DISL:CATA:1,2019-05-11T08:30:00Z,30.3085,-88.1395,2.353,7.47,11111222 
DISL,ioos:station:DISL:CATA:1,2019-05-11T09:30:00Z,30.3085,-88.1395,2.405,7.29,11111222 
DISL,ioos:station:DISL:CATA:1,2019-05-11T10:30:00Z,30.3085,-88.1395,2.42,7.31,11111222 
DISL,ioos:station:DISL:CATA:1,2019-05-11T11:30:00Z,30.3085,-88.1395,2.482,6.69,11111222 
DISL,ioos:station:DISL:CATA:1,2019-05-11T12:30:00Z,30.3085,-88.1395,2.555,7.12,11111222 
DISL,ioos:station:DISL:CATA:1,2019-05-12T12:30:00Z,30.3085,-88.1395,2.522,7.02,11111222 
DISL,ioos:station:DISL:CATA:1,2019-05-13T19:30:00Z,30.3085,-88.1395,2.507,4.81,11111222 
DISL,ioos:station:DISL:CATA:1,2019-05-13T20:30:00Z,30.3085,-88.1395,2.54,4.65,11111222 
DISL,ioos:station:DISL:CATA:1,2019-05-13T21:30:00Z,30.3085,-88.1395,2.582,4.24,11111222 
DISL,ioos:station:DISL:CATA:1,2019-05-13T22:00:00Z,30.3085,-88.1395,2.591,3.98,11111222 
DISL,ioos:station:DISL:CATA:1,2019-05-13T23:30:00Z,30.3085,-88.1395,2.573,4.79,11111222 
DISL,ioos:station:DISL:CATA:1,2019-05-14T00:30:00Z,30.3085,-88.1395,2.584,4.86,11111222 
DISL,ioos:station:DISL:CATA:1,2019-05-14T01:30:00Z,30.3085,-88.1395,2.552,5.28,11111222 
DISL,ioos:station:DISL:CATA:1,2019-05-14T02:30:00Z,30.3085,-88.1395,2.505,5.6,11111222 
DISL,ioos:station:DISL:CATA:1,2019-05-14T03:30:00Z,30.3085,-88.1395,2.455,7.54,11111222 
DISL,ioos:station:DISL:CATA:1,2019-05-14T04:30:00Z,30.3085,-88.1395,2.422,7.57,11111222 
DISL,ioos:station:DISL:CATA:1,2019-05-14T05:30:00Z,30.3085,-88.1395,2.393,7.61,11111222 
DISL,ioos:station:DISL:CATA:1,2019-05-14T06:30:00Z,30.3085,-88.1395,2.355,7.51,11111222 
DISL,ioos:station:DISL:CATA:1,2019-05-14T07:30:00Z,30.3085,-88.1395,2.315,7.35,11111222 
DISL,ioos:station:DISL:CATA:1,2019-05-14T08:30:00Z,30.3085,-88.1395,2.312,7.42,11111222 
DISL,ioos:station:DISL:CATA:1,2019-05-14T09:30:00Z,30.3085,-88.1395,2.35,7.46,11111222 